sat.trackr.live / text

‹ back to catalog

STARLINK-3172

NORAD 51139 · 2022-005AM

PAYLOAD ACTIVE UNKNOWN

§ Identity

Operator
Country
US
Launch date
2022-01-19
Launch site
AFETR
Launch vehicle
Mass (kg)
RCS (m²)

Purposes: comms

External: N2YO · Heavens-Above · Gunter

§ Orbital elements

Epoch: 2026-05-24T21:16:08.158656Z

Period
95.44 min
Inclination
53.2120°
Eccentricity
0.0001535
Mean motion
15.08836303 rev/d
Perigee alt
538.7 km
Apogee alt
540.8 km
Semi-major
6,917.9 km
B*
5.3194e-5
RAAN
317.0704°
Arg perigee
73.8368°
Mean anomaly
286.2793°
Rev number
24,024

§ Raw data

STARLINK-31721 51139U 22005AM  26144.88620554  .00000559  00000+0  53194-4 0  99972 51139  53.2120 317.0704 0001535  73.8368 286.2793 15.08836303240241

JSON: /api/v1/satellites/51139 · /tle

For live sub-satellite position, see the globe view (requires WebGL).

§ Visibility from observer

Set your observer location to see the next 7 days of passes ≥ 10°. The values pass through the URL so the page stays shareable.

No JS? Fill the form by hand. The geolocation button needs JavaScript.